Sacramento, CA

5:17 PM PST on February 27, 2017 (GMT -0800)
Sacramento Executive

Weather History for KSAC - October, 2014

Change the Weather History Date:

Thursday, October 30, 2014

  Actual Average Record
Temperature  
Mean Temperature 66 °F -  
Max Temperature 80 °F 71 °F 85 °F (2015)
Min Temperature 52 °F 47 °F 35 °F (1948)
Degree Days  
Heating Degree Days 0    
Cooling Degree Days 1    
Growing Degree Days 16 (Base 50)    
Moisture  
Dew Point 49 °F    
Average Humidity 58    
Maximum Humidity 86    
Minimum Humidity 30    
Precipitation  
Precipitation 0.00 in 0.05 in 0.66 in (1956)
Month to date precipitation 0.29 0.90  
Year to date precipitation 8.65 13.14  
Since 1 July precipitation 0.76  
Sea Level Pressure  
Sea Level Pressure 29.91 in    
Wind  
Wind Speed 2 mph (SSW)    
Max Wind Speed 15 mph    
Max Gust Speed 20 mph    
Visibility 10 miles    
Events      
T = Trace of Precipitation, MM = Missing Value Source: NWS Daily Summary

Daily Weather History Graph

Daily Weather History Graph

Search for Another Location

Airport or City:

Trip Planner

Search our weather history database for the weather conditions in past years. The results will help you decide how hot, cold, wet, or windy it might be!

Date:

Astronomy

Oct. 30, 2014 Rise Set
Actual Time 7:30 AM PDT 6:08 PM PDT
Civil Twilight 7:03 AM PDT 6:35 PM PDT
Nautical Twilight 6:31 AM PDT 7:06 PM PDT
Astronomical Twilight 6:00 AM PDT 7:37 PM PDT
Moon 1:37 PM PDT (10/30) No Moon Set
Length of Visible Light 11h 32m
Length of Day
10h 37m
Waxing Crescent, 46% of the Moon is Illuminated
Oct 30
Waxing Crescent
Oct 30
First Quarter
Nov 6
Full
Nov 14
Last Quarter
Nov 22
New

Hourly Weather History & Observations

Time (PDT) Temp. Dew Point Humidity Pressure Visibility Wind Dir Wind Speed Gust Speed Precip Events Conditions
12:53 AM 55.9 °F 51.1 °F 84% 29.99 in 10.0 mi Calm Calm - N/A   Clear
1:53 AM 55.9 °F 50.0 °F 80% 29.97 in 10.0 mi Calm Calm - N/A   Clear
2:53 AM 54.0 °F 48.9 °F 83% 29.97 in 10.0 mi Calm Calm - N/A   Clear
3:53 AM 54.0 °F 48.0 °F 80% 29.95 in 10.0 mi Calm Calm - N/A   Clear
4:53 AM 53.1 °F 48.0 °F 83% 29.95 in 10.0 mi Calm Calm - N/A   Clear
5:53 AM 53.1 °F 48.0 °F 83% 29.95 in 10.0 mi Calm Calm - N/A   Clear
6:53 AM 53.1 °F 48.0 °F 83% 29.95 in 10.0 mi Calm Calm - N/A   Clear
7:53 AM 53.1 °F 48.0 °F 83% 29.96 in 10.0 mi Calm Calm - N/A   Clear
8:53 AM 57.9 °F 50.0 °F 75% 29.97 in 10.0 mi Calm Calm - N/A   Clear
9:53 AM 64.0 °F 48.9 °F 58% 29.97 in 10.0 mi Calm Calm - N/A   Clear
10:53 AM 69.1 °F 46.9 °F 45% 29.96 in 10.0 mi Calm Calm - N/A   Clear
11:53 AM 73.0 °F 46.9 °F 39% 29.94 in 10.0 mi Calm Calm - N/A   Clear
12:53 PM 77.0 °F 46.0 °F 33% 29.91 in 10.0 mi SSE 5.8 mph - N/A   Clear
1:53 PM 78.1 °F 45.0 °F 31% 29.88 in 10.0 mi SSE 5.8 mph - N/A   Clear
2:53 PM 80.1 °F 46.0 °F 30% 29.86 in 10.0 mi South 3.5 mph - N/A   Clear
3:53 PM 77.0 °F 46.9 °F 34% 29.86 in 10.0 mi SSW 4.6 mph - N/A   Clear
4:53 PM 75.9 °F 48.0 °F 37% 29.86 in 10.0 mi South 3.5 mph - N/A   Clear
5:53 PM 73.0 °F 48.9 °F 42% 29.85 in 10.0 mi WSW 4.6 mph - N/A   Clear
6:53 PM 69.1 °F 48.9 °F 49% 29.86 in 10.0 mi SW 6.9 mph - N/A   Clear
7:53 PM 66.0 °F 50.0 °F 56% 29.86 in 10.0 mi South 3.5 mph - N/A   Clear
8:53 PM 64.9 °F 52.0 °F 63% 29.86 in 10.0 mi SSW 6.9 mph - N/A   Clear
9:53 PM 63.0 °F 55.0 °F 75% 29.86 in 10.0 mi SSW 9.2 mph 17.3 mph N/A   Clear
10:53 PM 64.0 °F 55.9 °F 75% 29.86 in 10.0 mi SW 13.8 mph - N/A   Clear
11:53 PM 62.1 °F 57.0 °F 84% 29.87 in 10.0 mi SW 6.9 mph - N/A   Clear